Time,TemperatureF,DewpointF,PressureIn,WindDirection,WindDirectionDegrees,WindSpeedMPH,WindSpeedGustMPH,Humidity,HourlyPrecipIn,Conditions,Clouds,dailyrainin,SolarRadiationWatts/m^2,SoftwareType,DateUTC
2013-01-26 00:21:00,38.0,38.0,-100.00,NNE,13,0.0,0.0,100,0.00,,,0.08,0.000000,,2013-01-26 08:21:00,
2013-01-26 00:31:00,38.0,38.0,-100.00,NNE,13,0.0,0.0,100,0.00,,,0.08,0.000000,,2013-01-26 08:31:00,
2013-01-26 01:22:00,38.0,38.0,-100.00,North,7,0.0,0.0,100,0.01,,,0.09,0.000000,,2013-01-26 09:22:00,
2013-01-26 01:31:00,38.0,38.0,-100.00,North,7,0.0,0.0,100,0.01,,,0.09,0.000000,,2013-01-26 09:31:00,
2013-01-26 01:42:00,38.0,38.0,-100.00,North,7,0.0,0.0,100,0.01,,,0.09,0.000000,,2013-01-26 09:42:00,
2013-01-26 01:51:00,38.0,38.0,-100.00,North,7,0.0,0.0,100,0.01,,,0.09,0.000000,,2013-01-26 09:51:00,
2013-01-26 02:21:00,38.0,38.0,-100.00,North,352,0.0,0.0,100,0.01,,,0.10,0.000000,,2013-01-26 10:21:00,
2013-01-26 02:31:00,38.0,38.0,-100.00,North,352,0.0,0.0,100,0.01,,,0.10,0.000000,,2013-01-26 10:31:00,
2013-01-26 02:42:00,38.0,38.0,-100.00,North,352,0.0,0.0,100,0.01,,,0.10,0.000000,,2013-01-26 10:42:00,
2013-01-26 02:52:00,38.0,38.0,-100.00,North,352,0.0,0.0,100,0.01,,,0.10,0.000000,,2013-01-26 10:52:00,
2013-01-26 03:22:00,36.0,36.0,-100.00,North,6,0.0,0.0,100,0.00,,,0.09,0.000000,,2013-01-26 11:22:00,
2013-01-26 04:22:00,38.0,38.0,-100.00,NNW,346,0.0,0.0,100,-99.99,,,0.08,0.000000,,2013-01-26 12:22:00,
2013-01-26 04:33:00,38.0,38.0,-100.00,NNW,346,0.0,0.0,100,-99.99,,,0.08,0.000000,,2013-01-26 12:33:00,
2013-01-26 04:42:00,38.0,38.0,-100.00,NNW,346,0.0,0.0,100,-99.99,,,0.08,0.000000,,2013-01-26 12:42:00,
2013-01-26 04:52:00,38.0,38.0,-100.00,NNW,346,0.0,0.0,100,-99.99,,,0.08,0.000000,,2013-01-26 12:52:00,
2013-01-26 05:22:00,36.0,36.0,-100.00,North,353,0.0,0.0,100,-99.99,,,0.08,0.000000,,2013-01-26 13:22:00,
2013-01-26 05:32:00,36.0,36.0,-100.00,North,353,0.0,0.0,100,-99.99,,,0.08,0.000000,,2013-01-26 13:32:00,
2013-01-26 06:21:00,36.0,36.0,-100.00,North,353,0.0,0.0,100,-99.99,,,0.07,0.000000,,2013-01-26 14:21:00,
2013-01-26 06:32:00,36.0,36.0,-100.00,North,353,0.0,0.0,100,-99.99,,,0.07,0.000000,,2013-01-26 14:32:00,
2013-01-26 07:32:00,36.0,36.0,-100.00,North,351,0.0,0.0,100,0.00,,,-99.99,0.000000,,2013-01-26 15:32:00,
2013-01-26 08:22:00,38.0,38.0,-100.00,North,358,0.0,0.0,100,0.00,,,0.04,4.000000,,2013-01-26 16:22:00,
2013-01-26 08:32:00,38.0,38.0,-100.00,North,358,0.0,0.0,100,0.00,,,0.04,4.000000,,2013-01-26 16:32:00,
2013-01-26 08:42:00,38.0,38.0,-100.00,North,358,0.0,0.0,100,0.00,,,0.04,4.000000,,2013-01-26 16:42:00,
2013-01-26 08:52:00,38.0,38.0,-100.00,North,358,0.0,0.0,100,0.00,,,0.04,4.000000,,2013-01-26 16:52:00,
2013-01-26 09:22:00,39.0,39.0,-100.00,North,5,0.0,0.0,100,0.00,,,0.04,42.000000,,2013-01-26 17:22:00,
2013-01-26 09:32:00,39.0,39.0,-100.00,North,5,0.0,0.0,100,0.00,,,0.04,42.000000,,2013-01-26 17:32:00,
2013-01-26 09:42:00,39.0,39.0,-100.00,North,5,0.0,0.0,100,0.00,,,0.04,42.000000,,2013-01-26 17:42:00,
2013-01-26 09:52:00,39.0,39.0,-100.00,North,5,0.0,0.0,100,0.00,,,0.04,42.000000,,2013-01-26 17:52:00,
2013-01-26 10:32:00,42.0,42.0,-100.00,North,354,0.0,0.0,100,0.00,,,0.04,83.000000,,2013-01-26 18:32:00,
2013-01-26 10:42:00,42.0,42.0,-100.00,North,354,0.0,0.0,100,0.00,,,0.04,83.000000,,2013-01-26 18:42:00,
2013-01-26 10:52:00,42.0,42.0,-100.00,North,354,0.0,0.0,100,0.00,,,0.04,83.000000,,2013-01-26 18:52:00,
2013-01-26 11:22:00,46.0,46.0,-100.00,SW,218,0.0,0.0,100,0.00,,,0.04,141.000000,,2013-01-26 19:22:00,
2013-01-26 11:32:00,46.0,46.0,-100.00,SW,218,0.0,0.0,100,0.00,,,0.04,141.000000,,2013-01-26 19:32:00,
2013-01-26 11:42:00,46.0,46.0,-100.00,SW,218,0.0,0.0,100,0.00,,,0.04,141.000000,,2013-01-26 19:42:00,
2013-01-26 11:52:00,46.0,46.0,-100.00,SW,218,0.0,0.0,100,0.00,,,0.04,141.000000,,2013-01-26 19:52:00,
2013-01-26 12:32:00,44.0,43.0,-100.00,South,184,0.0,0.0,98,0.00,,,0.03,92.000000,,2013-01-26 20:32:00,
2013-01-26 12:42:00,44.0,43.0,-100.00,South,184,0.0,0.0,98,0.00,,,0.03,92.000000,,2013-01-26 20:42:00,
2013-01-26 12:52:00,44.0,43.0,-100.00,South,184,0.0,0.0,98,0.00,,,0.03,92.000000,,2013-01-26 20:52:00,
2013-01-26 13:22:00,50.0,39.0,-100.00,SW,231,0.0,8.0,66,0.00,,,0.03,176.000000,,2013-01-26 21:22:00,
2013-01-26 13:32:00,50.0,39.0,-100.00,SW,231,0.0,8.0,66,0.00,,,0.03,176.000000,,2013-01-26 21:32:00,
2013-01-26 13:42:00,50.0,39.0,-100.00,SW,231,0.0,8.0,66,0.00,,,0.03,176.000000,,2013-01-26 21:42:00,
2013-01-26 13:51:00,50.0,39.0,-100.00,SW,231,0.0,8.0,66,0.00,,,0.03,176.000000,,2013-01-26 21:51:00,
2013-01-26 14:31:00,50.0,38.0,-100.00,NE,49,1.0,9.0,64,0.00,,,0.03,161.000000,,2013-01-26 22:31:00,
2013-01-26 14:42:00,50.0,38.0,-100.00,NE,49,1.0,9.0,64,0.00,,,0.03,161.000000,,2013-01-26 22:42:00,
2013-01-26 14:51:00,50.0,38.0,-100.00,NE,49,1.0,9.0,64,0.00,,,0.03,161.000000,,2013-01-26 22:51:00,
2013-01-26 15:21:00,52.0,38.0,-100.00,SW,218,1.0,14.0,58,0.00,,,0.03,158.000000,,2013-01-26 23:21:00,
2013-01-26 15:32:00,52.0,38.0,-100.00,SW,218,1.0,14.0,58,0.00,,,0.03,158.000000,,2013-01-26 23:32:00,
2013-01-26 15:41:00,52.0,38.0,-100.00,SW,218,1.0,14.0,58,0.00,,,0.03,158.000000,,2013-01-26 23:41:00,
2013-01-26 15:52:00,52.0,38.0,-100.00,SW,218,1.0,14.0,58,0.00,,,0.03,158.000000,,2013-01-26 23:52:00,
2013-01-26 16:21:00,46.0,37.0,-100.00,ENE,57,0.0,9.0,71,0.01,,,0.04,54.000000,,2013-01-27 00:21:00,
2013-01-26 16:32:00,46.0,37.0,-100.00,ENE,57,0.0,9.0,71,0.01,,,0.04,54.000000,,2013-01-27 00:32:00,
2013-01-26 16:41:00,46.0,37.0,-100.00,ENE,57,0.0,9.0,71,0.01,,,0.04,54.000000,,2013-01-27 00:41:00,
2013-01-26 16:51:00,46.0,37.0,-100.00,ENE,57,0.0,9.0,71,0.01,,,0.04,54.000000,,2013-01-27 00:51:00,
2013-01-26 17:32:00,41.0,41.0,-100.00,West,261,0.0,8.0,100,0.04,,,0.08,20.000000,,2013-01-27 01:32:00,
2013-01-26 17:41:00,41.0,41.0,-100.00,West,261,0.0,8.0,100,0.04,,,0.08,20.000000,,2013-01-27 01:41:00,
2013-01-26 17:51:00,41.0,41.0,-100.00,West,261,0.0,8.0,100,0.04,,,0.08,20.000000,,2013-01-27 01:51:00,
2013-01-26 18:21:00,41.0,41.0,-100.00,SSE,154,0.0,4.0,100,0.01,,,0.09,0.000000,,2013-01-27 02:21:00,
2013-01-26 18:31:00,41.0,41.0,-100.00,SSE,154,0.0,4.0,100,0.01,,,0.09,0.000000,,2013-01-27 02:31:00,
2013-01-26 18:41:00,41.0,41.0,-100.00,SSE,154,0.0,4.0,100,0.01,,,0.09,0.000000,,2013-01-27 02:41:00,
2013-01-26 18:52:00,41.0,41.0,-100.00,SSE,154,0.0,4.0,100,0.01,,,0.09,0.000000,,2013-01-27 02:52:00,
2013-01-26 19:31:00,39.0,39.0,-100.00,SW,217,0.0,3.0,100,0.05,,,0.14,0.000000,,2013-01-27 03:31:00,
2013-01-26 19:41:00,39.0,39.0,-100.00,SW,217,0.0,3.0,100,0.05,,,0.14,0.000000,,2013-01-27 03:41:00,
2013-01-26 19:51:00,39.0,39.0,-100.00,SW,217,0.0,3.0,100,0.05,,,0.14,0.000000,,2013-01-27 03:51:00,
2013-01-26 20:21:00,38.0,38.0,-100.00,NNW,336,0.0,0.0,100,0.09,,,0.23,0.000000,,2013-01-27 04:21:00,
2013-01-26 20:31:00,38.0,38.0,-100.00,NNW,336,0.0,0.0,100,0.09,,,0.23,0.000000,,2013-01-27 04:31:00,
2013-01-26 20:41:00,38.0,38.0,-100.00,NNW,336,0.0,0.0,100,0.09,,,0.23,0.000000,,2013-01-27 04:41:00,
2013-01-26 20:51:00,38.0,38.0,-100.00,NNW,336,0.0,0.0,100,0.09,,,0.23,0.000000,,2013-01-27 04:51:00,
2013-01-26 21:22:00,37.0,37.0,-100.00,South,187,0.0,0.0,100,0.03,,,0.25,0.000000,,2013-01-27 05:22:00,
2013-01-26 21:32:00,37.0,37.0,-100.00,South,187,0.0,0.0,100,0.03,,,0.25,0.000000,,2013-01-27 05:32:00,
2013-01-26 21:41:00,37.0,37.0,-100.00,South,187,0.0,0.0,100,0.03,,,0.25,0.000000,,2013-01-27 05:41:00,
2013-01-26 21:52:00,37.0,37.0,-100.00,South,187,0.0,0.0,100,0.03,,,0.25,0.000000,,2013-01-27 05:52:00,
2013-01-26 22:21:00,36.0,36.0,-100.00,WSW,237,0.0,0.0,100,0.02,,,0.27,0.000000,,2013-01-27 06:21:00,
2013-01-26 22:31:00,36.0,36.0,-100.00,WSW,237,0.0,0.0,100,0.02,,,0.27,0.000000,,2013-01-27 06:31:00,
2013-01-26 22:41:00,36.0,36.0,-100.00,WSW,237,0.0,0.0,100,0.02,,,0.27,0.000000,,2013-01-27 06:41:00,
2013-01-26 22:51:00,36.0,36.0,-100.00,WSW,237,0.0,0.0,100,0.02,,,0.27,0.000000,,2013-01-27 06:51:00,
2013-01-26 23:21:00,37.0,37.0,-100.00,NW,316,0.0,4.0,100,0.03,,,0.30,0.000000,,2013-01-27 07:21:00,
2013-01-26 23:31:00,37.0,37.0,-100.00,NW,316,0.0,4.0,100,0.03,,,0.30,0.000000,,2013-01-27 07:31:00,
2013-01-26 23:41:00,37.0,37.0,-100.00,NW,316,0.0,4.0,100,0.03,,,0.30,0.000000,,2013-01-27 07:41:00,
2013-01-26 23:51:00,37.0,37.0,-100.00,NW,316,0.0,4.0,100,0.03,,,0.30,0.000000,,2013-01-27 07:51:00,